Flight Track Log - Related Links

Times and Time Zones

All times are in EDT time to prevent confusion due to time zone crossing. See the DAL3784 flight status page for this flight to view local times or setup timezone preferences in your user account.

Time Position Orientation Groundspeed Altitude Reporting Facility
EDT Latitude Longitude Course Direction KTS MPH feet Rate Location/Type
Sun 03:43:43 PM 42.2014 -83.3611 344° North 168 193 1,400  Level Cleveland Center
Sun 03:44:44 PM 42.1689 -83.4183 233° Southwest 212 244 4,200 2,578 Climbing Cleveland Center
Sun 03:45:51 PM 42.1500 -83.5072 254° West 278 320 6,900 2,455 Climbing Cleveland Center
Sun 03:46:34 PM 42.1731 -83.5756 294° West 275 316 8,700 1,909 Climbing Cleveland Center
Sun 03:47:00 PM 42.5970 -83.3500 North  Level FlightAware Approximate
Sun 03:47:41 PM 42.2100 -83.6808 295° West 287 330 10,400  Level Cleveland Center
Sun 03:48:00 PM 42.6963 -83.3500 North  Level FlightAware Approximate
Sun 03:48:28 PM 42.2725 -83.6869 356° North 313 360 11,900  Level Cleveland Center
Sun 03:49:00 PM 42.7351 -83.4668 344° North  Level Estimated
Sun 03:49:28 PM 42.3589 -83.6461 19° North 286 329 14,100  Level Cleveland Center
Sun 03:50:28 PM 42.4392 -83.6078 19° North 307 353 15,700 1,750 Climbing Cleveland Center
Sun 03:51:28 PM 42.5300 -83.5586 22° Northeast 328 377 17,600 1,550 Climbing Cleveland Center
Sun 03:52:28 PM 42.6294 -83.5097 20° North 349 402 18,800 1,450 Climbing Cleveland Center
Sun 03:53:28 PM 42.7306 -83.4608 20° North 369 425 20,500 1,650 Climbing Cleveland Center
Sun 03:54:28 PM 42.8342 -83.4061 21° North 380 437 22,100 1,300 Climbing Cleveland Center
Sun 03:55:28 PM 42.9394 -83.3653 16° North 387 445 23,100 1,000 Climbing Cleveland Center
Sun 03:56:28 PM 43.0519 -83.3675 359° North 387 445 24,100 1,250 Climbing Cleveland Center
Sun 03:57:28 PM 43.1528 -83.4178 340° North 379 436 25,600 950 Climbing Cleveland Center
Sun 03:58:28 PM 43.2492 -83.4819 334° Northwest 379 436 26,000 200 Climbing Cleveland Center
Sun 03:59:28 PM 43.3517 -83.5494 334° Northwest 390 449 26,000  Level Cleveland Center
Sun 04:01:42 PM 43.5272 -83.7631 319° Northwest 400 460 26,000  Level Minneapolis Center
Sun 04:02:44 PM 43.5644 -83.9058 290° West 396 456 26,000  Level Minneapolis Center
Sun 04:03:45 PM 43.6089 -84.0783 290° West 399 459 26,000  Level Minneapolis Center
Sun 04:04:47 PM 43.6439 -84.2219 289° West 398 458 26,000  Level Minneapolis Center
Sun 04:05:49 PM 43.6803 -84.3686 289° West 403 464 26,000  Level Minneapolis Center
Sun 04:06:50 PM 43.7144 -84.5150 288° West 402 463 26,000  Level Minneapolis Center
Sun 04:07:52 PM 43.7367 -84.6644 282° West 401 461 26,000  Level Minneapolis Center
Sun 04:09:05 PM 43.7589 -84.8133 282° West 399 459 26,000  Level Minneapolis Center
Sun 04:10:07 PM 43.7867 -84.9922 282° West 399 459 26,000  Level Minneapolis Center
Sun 04:11:09 PM 43.8136 -85.1686 282° West 394 453 26,000  Level Minneapolis Center
Sun 04:12:10 PM 43.8353 -85.3164 282° West 394 453 26,000  Level Minneapolis Center
Sun 04:13:12 PM 43.8572 -85.4664 282° West 397 457 26,000  Level Minneapolis Center
Sun 04:14:13 PM 43.8789 -85.6139 282° West 396 456 26,000 -98 Level Minneapolis Center
Sun 04:15:15 PM 43.9006 -85.7622 282° West 394 453 25,800 -339 Descending Minneapolis Center
Sun 04:16:17 PM 43.9219 -85.9153 281° West 402 463 25,300 -537 Descending Minneapolis Center
Sun 04:17:18 PM 43.9492 -86.0997 282° West 408 470 24,700 -537 Descending Minneapolis Center
Sun 04:18:20 PM 43.9708 -86.2542 281° West 410 472 24,200 -484 Descending Minneapolis Center
Sun 04:19:22 PM 43.9922 -86.4089 281° West 410 472 23,700 -683 Descending Minneapolis Center
Sun 04:20:23 PM 44.0128 -86.5642 280° West 411 473 22,800 -1,122 Descending Minneapolis Center
Sun 04:21:25 PM 44.0336 -86.7169 281° West 407 468 21,400 -1,210 Descending Minneapolis Center
Sun 04:22:27 PM 44.0542 -86.8639 281° West 394 453 20,300 -1,016 Descending Minneapolis Center
Sun 04:23:29 PM 44.0728 -87.0061 280° West 380 437 19,300 -1,171 Descending Minneapolis Center
Sun 04:24:30 PM 44.0950 -87.1719 281° West 368 423 17,900 -927 Descending Minneapolis Center
Sun 04:25:32 PM 44.1103 -87.2989 280° West 367 422 17,400 -823 Descending Minneapolis Center
Sun 04:26:34 PM 44.1300 -87.4564 280° West 357 411 16,200 -1,122 Descending Minneapolis Center
Sun 04:27:35 PM 44.1467 -87.5875 280° West 347 399 15,100 -1,073 Descending Minneapolis Center
Sun 04:28:37 PM 44.1633 -87.7178 280° West 343 395 14,000 -1,065 Descending Minneapolis Center
Sun 04:29:39 PM 44.1947 -87.8414 290° West 340 391 12,900 -1,306 Descending Minneapolis Center
Sun 04:30:41 PM 44.2264 -87.9608 290° West 332 382 11,300 -1,366 Descending Minneapolis Center
Sun 04:31:42 PM 44.2525 -88.0636 290° West 288 331 10,100 -1,707 Descending Minneapolis Center
Sun 04:32:44 PM 44.2811 -88.1706 291° West 258 297 7,800 -2,032 Descending Minneapolis Center
Sun 04:33:46 PM 44.3042 -88.2608 290° West 250 288 5,900 -1,887 Descending Minneapolis Center
Sun 04:34:48 PM 44.3269 -88.3475 290° West 244 281 3,900 -1,935 Descending Minneapolis Center

Login

Don't have an account? Register now (free) for customized features, flight alerts, and more!